[[{"header":{"parameterUnit":"m.s-1","parameterCategory":1,"la1":30.2991,"la2":30.254,"lo1":-89.0895,"lo2":-89.0444,"dy":0.0017,"dx":0.0017,"nx":28,"ny":28,"refTime":"2026-01-30T09:00:00:Z","depth":0,"parameterNumber":2,"parameterNumberName":"U-component_of_WINDS"},"data":[0,0,0,0,0,0,0,0,0,0,0,0,0,0,0,0,0,0,0,0,0,0,0,0,0,0,0,0,0,0,0,0,0,0,0,0,0,0,0,0,0,0,0,0,0,0,0,0,0,0,0,0,0,0,0,0,0,0,-1.0084,-1.0085,0,-1.018,-1.0181,-1.0182,-1.0174,-1.0173,-1.0171,-1.017,-1.0269,-1.0273,-1.0277,0,0,0,0,0,0,0,0,0,0,0,0,0,-0.9894,-0.9898,-1.0084,-1.0085,-1.0086,-1.018,-1.0181,-1.0183,-1.0175,-1.0173,-1.0171,-1.0169,-1.0268,-1.0273,-1.0278,0,0,0,0,0,0,0,0,0,0,0,0,0,-0.9982,-0.9899,-1.0084,-1.0094,-1.0095,-1.018,-1.0181,-1.0183,-1.0175,-1.0173,-1.0171,-1.0169,-1.0267,-1.0272,-1.0278,-1.0359,0,0,-1.0297,-1.0299,0,0,0,0,0,0,0,0,-0.9977,-0.9989,-1.0091,-1.0093,-1.0095,-1.0163,-1.0151,-1.0242,-1.0176,-1.0145,-1.017,-1.0167,-1.0236,-1.0244,-1.0267,-1.0364,-1.0368,-1.0297,-1.0301,-1.0303,-1.0305,0,0,0,0,0,0,0,-0.9971,-0.9985,-1.0122,-1.0092,-1.0095,-1.0094,-1.0104,-1.0168,-1.0201,-1.0147,-1.0147,-1.0158,-1.0237,-1.0261,-1.0269,-1.037,-1.0297,-1.0302,-1.0306,-1.0308,-1.0538,-1.0541,0,0,0,0,0,0,-0.9963,-0.998,-1.0119,-1.0125,-1.003,-1.0099,-1.011,-1.0143,-1.0201,-1.0207,-1.016,-1.0158,-1.0252,-1.0262,-1.0273,-1.0371,-1.0303,-1.0309,-1.0313,-1.0536,-1.0539,-1.0541,0,0,0,0,0,0,-0.9959,-0.9975,-1.0115,-1.0052,-1.007,-1.0104,-1.0142,-1.0147,-1.0171,-1.021,-1.0216,-1.0179,-1.0251,-1.0264,-1.0338,-1.0375,-1.0312,-1.0317,-1.0533,-1.0537,-1.054,-1.0569,0,0,0,0,0,0,-0.9953,-0.9974,-1.0004,-1.0053,-1.0073,-1.0178,-1.0144,-1.015,-1.0182,-1.0179,-1.023,-1.0236,-1.025,-1.0329,-1.0344,-1.0382,-1.0322,-1.053,-1.0534,-1.0539,-1.0565,-1.0573,-1.058,0,0,0,0,0,-0.9946,-1.0009,-1.0006,-1.0023,-1.0113,-1.018,-1.0192,-1.0206,-1.0185,-1.0216,-1.0241,-1.0235,-1.0368,-1.0337,-1.0353,-1.0393,-1.0527,-1.0533,-1.0539,-1.0561,-1.0571,-1.058,0,0,0,0,0,0,-0.9964,-1.0015,-1.0013,-1.0093,-1.0132,-1.0179,-1.0219,-1.0217,-1.0263,-1.0259,-1.0276,-1.0287,-1.0361,-1.0385,-1.0348,-1.0475,-1.0445,-1.0454,-1.0456,-1.0466,-1.0474,-1.0466,-1.0327,0,0,0,0,0,-0.9977,-1.0027,-1.007,-1.0136,-1.0156,-1.0184,-1.0214,-1.0222,-1.0263,-1.028,-1.0311,-1.0352,-1.0403,-1.0436,-1.0486,-1.0568,-1.0579,-1.0604,-1.0612,-1.0618,-1.0626,-1.0671,-1.0683,-1.056,-1.056,-1.056,0,0,-1.0004,-1.0039,-1.0069,-1.0141,-1.0172,-1.0224,-1.0198,-1.0254,-1.0293,-1.0289,-1.036,-1.0384,-1.0431,-1.0509,-1.0545,-1.0531,-1.0662,-1.0625,-1.063,-1.0634,-1.0678,-1.069,-1.07,-1.0564,-1.0563,-1.0562,0,0,-1.008,-1.0112,-1.0171,-1.0203,-1.0251,-1.0269,-1.0283,-1.0331,-1.0346,-1.0418,-1.0416,-1.0463,-1.055,-1.0584,-1.0612,-1.0702,-1.0698,-1.0718,-1.0758,-1.0802,-1.0812,-1.082,-1.0852,-1.0863,-1.0726,-1.0726,-1.0726,0,-1.0108,-1.0186,-1.0201,-1.0258,-1.0289,-1.0288,-1.0347,-1.0378,-1.044,-1.0462,-1.0445,-1.0556,-1.0587,-1.0673,-1.0695,-1.0719,-1.0735,-1.0712,-1.0809,-1.0818,-1.0826,-1.0856,-1.0868,-1.0728,-1.0728,-1.0727,-1.0727,0,-1.0218,-1.0272,-1.0314,-1.0373,-1.041,-1.0468,-1.0491,-1.0526,-1.0532,-1.0552,-1.0625,-1.0663,-1.072,-1.0741,-1.0747,-1.0828,-1.0818,-1.0805,-1.0775,-1.084,-1.0868,-1.088,-1.0731,-1.073,-1.0729,-1.0729,0,0,-1.0306,-1.0374,-1.0389,-1.0416,-1.0469,-1.0511,-1.057,-1.0625,-1.0655,-1.0698,-1.0747,-1.0822,-1.081,-1.0843,-1.0852,-1.0891,-1.096,-1.0874,-1.0875,-1.0888,-1.1051,-1.1059,-1.1073,-1.0958,-1.096,-1.0962,-1.1047,0,-1.0387,-1.049,-1.0505,-1.0595,-1.0645,-1.0646,-1.0697,-1.0735,-1.0756,-1.0802,-1.0825,-1.0878,-1.0859,-1.0879,-1.0917,-1.0943,-1.0992,-1.0937,-1.1003,-1.1005,-1.099,-1.1088,-1.1096,-1.1175,-1.1058,-1.106,-1.1062,0,-1.0495,-1.054,-1.0636,-1.0682,-1.0704,-1.0749,-1.0801,-1.0846,-1.0889,-1.0902,-1.0939,-1.0944,-1.1004,-1.0973,-1.1056,-1.1019,-1.1047,-1.1064,-1.1067,-1.1073,-1.1036,-1.1095,-1.12,-1.1212,-1.108,-1.1078,-1.1077,0,-1.0548,-1.0634,-1.0702,-1.0725,-1.0782,-1.0813,-1.0839,-1.088,-1.0913,-1.0959,-1.098,-1.1033,-1.1062,-1.1103,-1.1122,-1.1097,-1.1204,-1.1174,-1.1216,-1.1215,-1.1237,-1.1235,-1.1347,-1.1258,-1.1257,-1.1257,-1.1257,0,-1.0636,-1.0694,-1.0727,-1.0768,-1.0833,-1.0851,-1.0915,-1.094,-1.0977,-1.1024,-1.1028,-1.1072,-1.1095,-1.1143,-1.1159,-1.1225,-1.1238,-1.125,-1.1253,-1.1249,-1.1247,-1.1266,-1.1261,-1.126,-1.126,-1.1259,-1.1258,0,-1.0706,-1.073,-1.0804,-1.0852,-1.0865,-1.0911,-1.0952,-1.0993,-1.1014,-1.1073,-1.1088,-1.1121,-1.1177,-1.1201,-1.127,-1.1281,-1.1357,-1.1357,-1.1342,-1.1342,-1.1382,-1.1378,-1.151,-1.1527,-1.1427,-1.1428,-1.1429,0,-1.0759,-1.0804,-1.0857,-1.0888,-1.0914,-1.0965,-1.0998,-1.1018,-1.1053,-1.1107,-1.1141,-1.1197,-1.1243,-1.1332,-1.1363,-1.1416,-1.1416,-1.1459,-1.1424,-1.1418,-1.1415,-1.1412,-1.1416,-1.1464,-1.1465,-1.1466,-1.1467,0,-1.0851,-1.0861,-1.0909,-1.0961,-1.1001,-1.1043,-1.1084,-1.111,-1.1136,-1.1175,-1.1232,-1.1268,-1.1339,-1.1394,-1.1449,-1.1475,-1.1476,-1.1478,-1.149,-1.1485,-1.1474,-1.148,-1.1358,-1.1474,-1.1474,-1.1473,-1.1473,-1.1472,-1.0914,-1.0953,-1.0997,-1.105,-1.1083,-1.1122,-1.1162,-1.1189,-1.1237,-1.1296,-1.1305,-1.1366,-1.141,-1.1483,-1.1512,-1.156,-1.1549,-1.1567,-1.1572,-1.1575,-1.1577,-1.1468,-1.1571,-1.157,-1.157,-1.157,-1.157,0,-1.1005,-1.1033,-1.1082,-1.114,-1.1182,-1.1179,-1.1225,-1.126,-1.1313,-1.1354,-1.1399,-1.1465,-1.152,-1.1555,-1.161,-1.1641,-1.1643,-1.1655,-1.1652,-1.1658,-1.1584,-1.1568,-1.1653,-1.1653,-1.1653,-1.1653,-1.1653,-1.1653,-1.1057,-1.1124,-1.1139,-1.1223,-1.1251,-1.1311,-1.1337,-1.1373,-1.1405,-1.1478,-1.1524,-1.1546,-1.1585,-1.1643,-1.1692,-1.1702,-1.1721,-1.1733,-1.1742,-1.1672,-1.1663,-1.1655,-1.1639,-1.1738,-1.1738,-1.1811,-1.1812,-1.1812]},{"header":{"parameterUnit":"m.s-1","parameterCategory":1,"la1":30.2991,"la2":30.254,"lo1":-89.0895,"lo2":-89.0444,"dy":0.0017,"dx":0.0017,"nx":28,"ny":28,"refTime":"2026-01-30T09:00:00:Z","depth":0,"parameterNumber":3,"parameterNumberName":"V-component_of_WINDS"},"data":[0,0,0,0,0,0,0,0,0,0,0,0,0,0,0,0,0,0,0,0,0,0,0,0,0,0,0,0,0,0,0,0,0,0,0,0,0,0,0,0,0,0,0,0,0,0,0,0,0,0,0,0,0,0,0,0,0,0,-0.7626,-0.7627,0,-0.7661,-0.7662,-0.7662,-0.7666,-0.7665,-0.7665,-0.7665,-0.77,-0.7702,-0.7703,0,0,0,0,0,0,0,0,0,0,0,0,0,-0.7562,-0.7563,-0.7626,-0.7627,-0.7627,-0.7661,-0.7662,-0.7662,-0.7666,-0.7665,-0.7665,-0.7664,-0.77,-0.7702,-0.7703,0,0,0,0,0,0,0,0,0,0,0,0,0,-0.7593,-0.7563,-0.7626,-0.7633,-0.7634,-0.7661,-0.7662,-0.7662,-0.7666,-0.7665,-0.7665,-0.7664,-0.77,-0.7701,-0.7703,-0.7726,0,0,-0.7709,-0.771,0,0,0,0,0,0,0,0,-0.7591,-0.7595,-0.7631,-0.7632,-0.7634,-0.7659,-0.7652,-0.7684,-0.7666,-0.7654,-0.7665,-0.7664,-0.7687,-0.769,-0.7698,-0.7728,-0.7729,-0.7709,-0.7711,-0.7711,-0.7712,0,0,0,0,0,0,0,-0.7589,-0.7593,-0.764,-0.7632,-0.7633,-0.7634,-0.7638,-0.7658,-0.7673,-0.7655,-0.7655,-0.7659,-0.7687,-0.7696,-0.7699,-0.773,-0.7709,-0.7711,-0.7712,-0.7713,-0.778,-0.7781,0,0,0,0,0,0,-0.7585,-0.7592,-0.7639,-0.7641,-0.761,-0.7636,-0.764,-0.7651,-0.7673,-0.7675,-0.766,-0.7659,-0.7693,-0.7696,-0.77,-0.7728,-0.7711,-0.7713,-0.7714,-0.7779,-0.778,-0.7781,0,0,0,0,0,0,-0.7584,-0.7589,-0.7638,-0.7616,-0.7623,-0.7637,-0.765,-0.7652,-0.766,-0.7676,-0.7679,-0.7665,-0.7692,-0.7697,-0.7719,-0.7729,-0.7714,-0.7716,-0.7779,-0.778,-0.778,-0.7784,0,0,0,0,0,0,-0.7582,-0.7589,-0.7598,-0.7617,-0.7624,-0.7657,-0.765,-0.7653,-0.7664,-0.7664,-0.7683,-0.7685,-0.7692,-0.7717,-0.7721,-0.7731,-0.7717,-0.7778,-0.7779,-0.778,-0.7783,-0.7785,-0.7786,0,0,0,0,0,-0.758,-0.7598,-0.7598,-0.7604,-0.7635,-0.7657,-0.7661,-0.7669,-0.7665,-0.7674,-0.7684,-0.7685,-0.7727,-0.7719,-0.7724,-0.7735,-0.7777,-0.7779,-0.778,-0.7782,-0.7784,-0.7786,0,0,0,0,0,0,-0.758,-0.76,-0.7601,-0.7626,-0.764,-0.7658,-0.767,-0.7671,-0.7687,-0.7686,-0.7695,-0.77,-0.7722,-0.7731,-0.7721,-0.7758,-0.7752,-0.7754,-0.7751,-0.7754,-0.7755,-0.7753,-0.7719,0,0,0,0,0,-0.7582,-0.7599,-0.7616,-0.7636,-0.7643,-0.7655,-0.7665,-0.7669,-0.7684,-0.769,-0.7702,-0.7717,-0.7733,-0.7744,-0.776,-0.7784,-0.7788,-0.7794,-0.7796,-0.7797,-0.7799,-0.7812,-0.7815,-0.7785,-0.7785,-0.7785,0,0,-0.7588,-0.7602,-0.7611,-0.7636,-0.7647,-0.7664,-0.766,-0.7677,-0.769,-0.7693,-0.7715,-0.7724,-0.7741,-0.7764,-0.7775,-0.7772,-0.7808,-0.7799,-0.78,-0.7801,-0.7814,-0.7817,-0.7819,-0.7786,-0.7786,-0.7786,0,0,-0.7608,-0.762,-0.7637,-0.7649,-0.7666,-0.7674,-0.7678,-0.7696,-0.7702,-0.7724,-0.7727,-0.7741,-0.777,-0.7781,-0.7791,-0.7814,-0.7815,-0.7819,-0.7828,-0.7841,-0.7843,-0.7845,-0.7853,-0.7856,-0.7821,-0.7821,-0.7821,0,-0.7613,-0.7638,-0.7646,-0.7664,-0.7674,-0.7678,-0.7696,-0.7706,-0.7728,-0.7735,-0.7732,-0.7767,-0.7779,-0.7804,-0.781,-0.7818,-0.7823,-0.7817,-0.7842,-0.7844,-0.7846,-0.7854,-0.7857,-0.7821,-0.7821,-0.7821,-0.7821,0,-0.7644,-0.7661,-0.7673,-0.7694,-0.7706,-0.7724,-0.7734,-0.7745,-0.7748,-0.7757,-0.7779,-0.7793,-0.7811,-0.7818,-0.7822,-0.7844,-0.7842,-0.784,-0.7834,-0.7849,-0.7857,-0.786,-0.7822,-0.7822,-0.7822,-0.7822,0,0,-0.7665,-0.7689,-0.7693,-0.7703,-0.7722,-0.7735,-0.7753,-0.7771,-0.778,-0.7795,-0.781,-0.7833,-0.7832,-0.7843,-0.7848,-0.7859,-0.7876,-0.7856,-0.7856,-0.7859,-0.7901,-0.7902,-0.7906,-0.7877,-0.7877,-0.7878,-0.79,0,-0.7686,-0.7718,-0.7725,-0.7752,-0.7768,-0.7771,-0.7786,-0.78,-0.7808,-0.7822,-0.7831,-0.7847,-0.7844,-0.7851,-0.7862,-0.7871,-0.7884,-0.787,-0.789,-0.7891,-0.7886,-0.791,-0.7911,-0.7931,-0.7903,-0.7903,-0.7903,0,-0.7716,-0.7731,-0.7759,-0.7776,-0.7783,-0.7796,-0.7814,-0.7827,-0.7842,-0.7847,-0.7859,-0.7863,-0.7881,-0.7874,-0.7899,-0.7889,-0.7897,-0.7903,-0.7904,-0.7907,-0.7898,-0.7913,-0.7938,-0.7941,-0.7908,-0.7908,-0.7907,0,-0.7728,-0.7755,-0.7776,-0.7784,-0.7804,-0.7813,-0.7822,-0.7836,-0.7846,-0.7861,-0.7868,-0.7885,-0.7894,-0.7907,-0.7915,-0.7909,-0.7939,-0.7932,-0.7943,-0.7943,-0.795,-0.7949,-0.7977,-0.7955,-0.7955,-0.7955,-0.7955,0,-0.7751,-0.7769,-0.7782,-0.7794,-0.7814,-0.7822,-0.7841,-0.7849,-0.7862,-0.7876,-0.788,-0.7893,-0.7903,-0.7917,-0.7924,-0.7943,-0.7947,-0.7952,-0.7953,-0.7951,-0.7951,-0.7957,-0.7956,-0.7956,-0.7956,-0.7956,-0.7956,0,-0.7768,-0.7778,-0.78,-0.7817,-0.7822,-0.7835,-0.785,-0.7862,-0.787,-0.7888,-0.7892,-0.7904,-0.7922,-0.7931,-0.7952,-0.7956,-0.7978,-0.7979,-0.7973,-0.7974,-0.7984,-0.7983,-0.8017,-0.8022,-0.7997,-0.7997,-0.7998,0,-0.7783,-0.7796,-0.7814,-0.7824,-0.7833,-0.7849,-0.7859,-0.7867,-0.7878,-0.7896,-0.7906,-0.7923,-0.7937,-0.7965,-0.7975,-0.7992,-0.7993,-0.8003,-0.7995,-0.7993,-0.7993,-0.7992,-0.7993,-0.8005,-0.8005,-0.8005,-0.8005,0,-0.7807,-0.7811,-0.7826,-0.7843,-0.7855,-0.7869,-0.7882,-0.789,-0.79,-0.7912,-0.793,-0.7941,-0.7962,-0.7979,-0.7996,-0.8005,-0.8007,-0.8008,-0.8011,-0.801,-0.8006,-0.8008,-0.7977,-0.8007,-0.8007,-0.8007,-0.8007,-0.8007,-0.7824,-0.7835,-0.785,-0.7867,-0.7877,-0.7889,-0.7902,-0.7911,-0.7926,-0.7944,-0.7948,-0.7966,-0.798,-0.8003,-0.8012,-0.8027,-0.8025,-0.803,-0.8031,-0.8032,-0.8032,-0.8003,-0.803,-0.803,-0.803,-0.803,-0.803,0,-0.7848,-0.7858,-0.7873,-0.7891,-0.7904,-0.7904,-0.7919,-0.793,-0.7946,-0.7959,-0.7973,-0.7993,-0.8009,-0.8021,-0.8037,-0.8047,-0.8048,-0.8051,-0.805,-0.8052,-0.8033,-0.8029,-0.8049,-0.8049,-0.8049,-0.8049,-0.8049,-0.8049,-0.7863,-0.7883,-0.7888,-0.7913,-0.7923,-0.7941,-0.7949,-0.796,-0.797,-0.7992,-0.8006,-0.8014,-0.8026,-0.8043,-0.8058,-0.8061,-0.8067,-0.807,-0.8073,-0.8055,-0.8053,-0.8051,-0.8047,-0.8071,-0.8071,-0.809,-0.8091,-0.8091]}]]